This is the latest recevied weather packets stored in our database for station/object N5ATR. If no packets are shown the sender has not sent any weather packets the latest 10 day(s).
| Time | Temp. | Humidity | Pressure | Rain* | Wind** | Luminosity | Snow |
|---|---|---|---|---|---|---|---|
| 1778013190 | 12.78° C | 61% | 1010.8 hPa | 0 mm | - | 303 W/m² | - |
| 1778012886 | 12.78° C | 61% | 1011.1 hPa | 0 mm | - | 248 W/m² | - |
| 1778012583 | 12.78° C | 61% | 1010.9 hPa | 0 mm | - | 242 W/m² | - |
| 1778012280 | 12.78° C | 63% | 1010.7 hPa | 0 mm | - | 325 W/m² | - |
| 1778011977 | 13.33° C | 59% | 1010.8 hPa | 0 mm | - | 337 W/m² | - |
| 1778011675 | 12.78° C | 63% | 1010.6 hPa | 0 mm | - | 267 W/m² | - |
| 1778011372 | 14.44° C | 59% | 1010.8 hPa | 0 mm | - | 393 W/m² | - |
| 1778011067 | 13.89° C | 62% | 1010.8 hPa | 0 mm | - | 1072 W/m² | - |
| 1778010765 | 12.78° C | 64% | 1010.7 hPa | 0 mm | - | 294 W/m² | - |
| 1778010462 | 12.22° C | 64% | 1010.8 hPa | 0 mm | - | 997 W/m² | - |
| 1778010159 | 12.78° C | 67% | 1010.6 hPa | 0 mm | - | 817 W/m² | - |
| 1778009854 | 11.67° C | 74% | 1010.9 hPa | 0 mm | - | 810 W/m² | - |
| 1778009552 | 11.11° C | 80% | 1010.8 hPa | 0 mm | - | 701 W/m² | - |
| 1778009250 | 11.11° C | 86% | 1010.9 hPa | 0 mm | - | 871 W/m² | - |
| 1778008948 | 10° C | 89% | 1011.1 hPa | 0 mm | - | 849 W/m² | - |
| 1778008646 | 10° C | 91% | 1010.9 hPa | 1.27 mm | - | 791 W/m² | - |
| 1778008344 | 8.89° C | 90% | 1011.1 hPa | 1.27 mm | - | 478 W/m² | - |
| 1778008040 | 9.44° C | 83% | 1011.3 hPa | 0 mm | - | 169 W/m² | - |
| 1778007739 | 11.11° C | 74% | 1010.9 hPa | 0 mm | - | 138 W/m² | - |
| 1778007436 | 11.67° C | 60% | 1011.1 hPa | 0 mm | - | 187 W/m² | - |
| 1778007133 | 12.78° C | 57% | 1010.8 hPa | 0 mm | - | 204 W/m² | - |
| 1778006829 | 13.89° C | 55% | 1010.8 hPa | 0 mm | - | 341 W/m² | - |
| 1778006527 | 13.33° C | 52% | 1010.6 hPa | 0 mm | - | 955 W/m² | - |
| 1778006223 | 13.89° C | 54% | 1010.8 hPa | 0 mm | - | 302 W/m² | - |
| 1778005921 | 13.33° C | 53% | 1010.8 hPa | 0 mm | - | 397 W/m² | - |
* Rain latest hour (hover to see other rain measurements)
** Current wind speed in m/s (hover to see current wind gust speed)